Location: Ailly
(50.0793°N, 1.9944°E)
Time: 21:22:31
(UTC+00:00)

Cosmos 1805 Rocket - Pass Details

Date: 15 January 2026
Orbit: 598 x 623 km, 82.5° (Epoch: 17 February)

Event Time Altitude Azimuth Distance (km) Brightness Sun altitude
Rises 06:03:47 0° 205° (SSW) 2,894 6.9 -15.7°
Reaches altitude 10° 06:06:05 10° 212° (SSW) 1,992 6.0 -15.3°
Maximum altitude 06:10:20 45° 285° (WNW) 848 3.8 -14.6°
Drops below altitude 10° 06:14:36 10° 359° (N) 1,999 6.0 -14.0°
Sets 06:16:55 0° 6° (N) 2,907 6.9 -13.6°
